Weather History for Noatak, AK

Change the Weather History Date:

Saturday, June 29, 2013

  Actual Average Record
Temperature  
Mean Temperature 51 °F -  
Max Temperature 60 °F 59 °F 86 °F (2004)
Min Temperature 42 °F 42 °F 28 °F (2008)
Degree Days  
Heating Degree Days 14    
Growing Degree Days 1 (Base 50)    
Moisture  
Dew Point 46 °F    
Average Humidity 77    
Maximum Humidity 88    
Minimum Humidity 59    
Precipitation  
Precipitation 0.04 in - - ()
Sea Level Pressure  
Sea Level Pressure 29.94 in    
Wind  
Wind Speed 5 mph (ENE)    
Max Wind Speed 10 mph    
Max Gust Speed -    
Visibility 10 miles    
Events      
Averages and records for this station are not official NWS values.
T = Trace of Precipitation, MM = Missing Value Source: NWS Daily Summary

Daily Weather History Graph

Daily Weather History Graph

Search for Another Location

Airport:

Trip Planner

Search our weather history database for the weather conditions in past years. The results will help you decide how hot, cold, wet, or windy it might be!

Date:

Astronomy

Jun. 29, 2013 Rise Set
Actual Time 3:27 AM AKDT 2:23 AM AKDT
Civil Twilight Sun does not rise Sun does not rise
Nautical Twilight Sun does not rise Sun does not rise
Astronomical Twilight Sun does not rise Sun does not rise
Moon 1:43 AM AKDT (6/29) 3:25 PM AKDT (6/29)
Length of Visible Light 24h 00m
Length of Day
22h 55m
Waning Gibbous, 54% of the Moon is Illuminated
Jun 29
Waning Gibbous
Jun 29
Last Quarter
Jul 7
New
Jul 15
First Quarter
Jul 22
Full

Hourly Weather History & Observations

Time (AKDT) Temp. Windchill Dew Point Humidity Pressure Visibility Wind Dir Wind Speed Gust Speed Precip Events Conditions
12:16 AM 48.2 °F - 41.0 °F 76% 30.03 in 10.0 mi NNW 6.9 mph - N/A   Clear
12:36 AM 46.4 °F 42.9 °F 39.2 °F 76% 30.03 in 10.0 mi NW 6.9 mph - N/A   Clear
12:56 AM 44.6 °F 41.4 °F 39.2 °F 81% 30.03 in 10.0 mi NNW 5.8 mph - N/A   Scattered Clouds
1:16 AM 44.6 °F 40.7 °F 39.2 °F 81% 30.03 in 10.0 mi NNW 6.9 mph - N/A   Mostly Cloudy
1:36 AM 44.6 °F 42.2 °F 39.2 °F 81% 30.03 in 10.0 mi NNW 4.6 mph - N/A   Mostly Cloudy
1:56 AM 44.6 °F 42.2 °F 39.2 °F 81% 30.03 in 10.0 mi NNW 4.6 mph - N/A   Overcast
2:16 AM 44.6 °F 42.2 °F 39.2 °F 81% 30.03 in 10.0 mi NW 4.6 mph - N/A   Mostly Cloudy
2:36 AM 42.8 °F 39.3 °F 39.2 °F 87% 30.03 in 10.0 mi NW 5.8 mph - N/A   Mostly Cloudy
2:56 AM 42.8 °F 40.1 °F 39.2 °F 87% 30.03 in 10.0 mi NNW 4.6 mph - N/A   Scattered Clouds
3:16 AM 44.6 °F 41.4 °F 39.2 °F 81% 30.03 in 10.0 mi NW 5.8 mph - N/A   Mostly Cloudy
3:36 AM 44.6 °F 42.2 °F 39.2 °F 81% 30.03 in 10.0 mi NW 4.6 mph - N/A   Overcast
3:56 AM 44.6 °F 42.2 °F 39.2 °F 81% 30.02 in 10.0 mi North 4.6 mph - N/A   Overcast
4:16 AM 46.4 °F 44.3 °F 41.0 °F 81% 30.02 in 10.0 mi North 4.6 mph - N/A   Overcast
4:36 AM 46.4 °F 45.2 °F 41.0 °F 81% 30.02 in 10.0 mi NNW 3.5 mph - N/A   Overcast
4:56 AM 46.4 °F 44.3 °F 39.2 °F 76% 30.02 in 10.0 mi NNE 4.6 mph - N/A   Overcast
5:16 AM 46.4 °F 44.3 °F 39.2 °F 76% 30.02 in 10.0 mi NE 4.6 mph - N/A   Overcast
5:36 AM 46.4 °F 45.2 °F 41.0 °F 81% 30.01 in 10.0 mi NNE 3.5 mph - N/A   Overcast
5:56 AM 46.4 °F - 41.0 °F 81% 30.02 in 10.0 mi Calm Calm - N/A   Overcast
6:16 AM 46.4 °F 44.3 °F 41.0 °F 81% 30.01 in 6.0 mi NNE 4.6 mph - N/A   Overcast
6:36 AM 46.4 °F - 42.8 °F 87% 30.01 in 10.0 mi Calm Calm - N/A   Overcast
6:56 AM 46.4 °F - 42.8 °F 87% 30.01 in 10.0 mi Calm Calm - N/A   Overcast
7:16 AM 46.4 °F - 42.8 °F 87% 30.01 in 10.0 mi Calm Calm - N/A   Overcast
7:36 AM 46.4 °F - 42.8 °F 87% 30.01 in 9.0 mi Calm Calm - N/A   Overcast
7:56 AM 46.4 °F - 42.8 °F 87% 30.00 in 10.0 mi Calm Calm - N/A   Overcast
8:16 AM 46.4 °F - 42.8 °F 87% 30.00 in 10.0 mi Calm Calm - N/A   Overcast
8:36 AM 48.2 °F - 44.6 °F 87% 30.00 in 10.0 mi Calm Calm - N/A   Overcast
8:56 AM 48.2 °F - 44.6 °F 87% 30.00 in 10.0 mi Calm Calm - N/A   Overcast
9:16 AM 48.2 °F - 44.6 °F 87% 29.99 in 10.0 mi NE 5.8 mph - N/A   Overcast
9:36 AM 51.8 °F - 46.4 °F 82% 29.99 in 10.0 mi ENE 3.5 mph - N/A   Mostly Cloudy
9:56 AM 51.8 °F - 46.4 °F 82% 29.99 in 10.0 mi Calm Calm - N/A   Scattered Clouds
10:16 AM 53.6 °F - 46.4 °F 77% 29.98 in 10.0 mi Calm Calm - N/A   Mostly Cloudy
10:36 AM 53.6 °F - 46.4 °F 77% 29.98 in 10.0 mi Calm Calm - N/A   Overcast
10:56 AM 55.4 °F - 46.4 °F 72% 29.98 in 10.0 mi East 3.5 mph - N/A   Overcast
11:16 AM 55.4 °F - 48.2 °F 77% 29.97 in 10.0 mi SE 4.6 mph - N/A   Overcast
11:36 AM 55.4 °F - 46.4 °F 72% 29.97 in 10.0 mi SE 5.8 mph - N/A   Overcast
11:56 AM 57.2 °F - 46.4 °F 67% 29.97 in 10.0 mi ESE 6.9 mph - N/A   Overcast
12:16 PM 59.0 °F - 46.4 °F 63% 29.97 in 10.0 mi SE 8.1 mph - N/A   Mostly Cloudy
12:36 PM 57.2 °F - 46.4 °F 67% 29.97 in 10.0 mi ESE 9.2 mph - N/A   Overcast
12:56 PM 57.2 °F - 46.4 °F 67% 29.96 in 10.0 mi Calm Calm - N/A   Overcast
1:16 PM 60.8 °F - 46.4 °F 59% 29.95 in 10.0 mi SE 5.8 mph - N/A   Mostly Cloudy
1:36 PM 60.8 °F - 46.4 °F 59% 29.94 in 10.0 mi SE 6.9 mph - N/A   Mostly Cloudy
1:56 PM 60.8 °F - 46.4 °F 59% 29.94 in 10.0 mi ESE 5.8 mph - N/A   Mostly Cloudy
2:16 PM 60.8 °F - 46.4 °F 59% 29.93 in 10.0 mi SE 6.9 mph - N/A   Overcast
2:36 PM 60.8 °F - 46.4 °F 59% 29.93 in 10.0 mi ESE 8.1 mph - N/A   Overcast
2:56 PM 60.8 °F - 46.4 °F 59% 29.92 in 10.0 mi SSE 8.1 mph - N/A   Overcast
3:16 PM 60.8 °F - 46.4 °F 59% 29.92 in 10.0 mi SSE 6.9 mph - N/A   Overcast
3:36 PM 60.8 °F - 48.2 °F 63% 29.92 in 10.0 mi SSE 8.1 mph - N/A   Overcast
3:56 PM 59.0 °F - 48.2 °F 67% 29.92 in 10.0 mi SE 6.9 mph - N/A   Overcast
4:16 PM 59.0 °F - 48.2 °F 67% 29.92 in 10.0 mi SE 4.6 mph - N/A   Overcast
4:36 PM 60.8 °F - 48.2 °F 63% 29.91 in 10.0 mi ESE 6.9 mph - N/A   Overcast
4:56 PM 59.0 °F - 48.2 °F 67% 29.90 in 10.0 mi ESE 10.4 mph - N/A   Overcast
5:16 PM 59.0 °F - 48.2 °F 67% 29.90 in 10.0 mi ESE 8.1 mph - N/A   Overcast
5:36 PM 60.8 °F - 48.2 °F 63% 29.89 in 10.0 mi SE 9.2 mph - N/A   Overcast
5:56 PM 60.8 °F - 48.2 °F 63% 29.88 in 10.0 mi ESE 10.4 mph - N/A   Overcast
6:16 PM 59.0 °F - 48.2 °F 67% 29.88 in 10.0 mi SE 9.2 mph - N/A   Overcast
6:36 PM 59.0 °F - 50.0 °F 72% 29.87 in 10.0 mi ESE 6.9 mph - N/A   Overcast
6:56 PM 57.2 °F - 50.0 °F 77% 29.86 in 10.0 mi East 4.6 mph - N/A   Overcast
7:16 PM 57.2 °F - 50.0 °F 77% 29.86 in 10.0 mi East 4.6 mph - N/A   Overcast
7:36 PM 57.2 °F - 51.8 °F 82% 29.85 in 10.0 mi ENE 4.6 mph - N/A   Overcast
7:56 PM 55.4 °F - 51.8 °F 88% 29.85 in 8.0 mi Calm Calm - 0.02 in   Overcast
8:16 PM 55.4 °F - 51.8 °F 88% 29.85 in 10.0 mi East 5.8 mph - N/A   Overcast
8:36 PM 55.4 °F - 51.8 °F 88% 29.83 in 10.0 mi ENE 5.8 mph - N/A   Overcast
8:56 PM 55.4 °F - 51.8 °F 88% 29.83 in 10.0 mi ENE 4.6 mph - N/A   Overcast
9:16 PM 55.4 °F - 51.8 °F 88% 29.82 in 10.0 mi Calm Calm - N/A   Overcast
9:36 PM 57.2 °F - 51.8 °F 82% 29.82 in 10.0 mi Calm Calm - N/A   Overcast
9:56 PM 55.4 °F - 51.8 °F 88% 29.81 in 10.0 mi East 4.6 mph - N/A   Overcast
10:16 PM 57.2 °F - 51.8 °F 82% 29.81 in 10.0 mi Calm Calm - N/A   Overcast
10:36 PM 55.4 °F - 51.8 °F 88% 29.80 in 10.0 mi ENE 3.5 mph - N/A   Overcast
10:56 PM 55.4 °F - 51.8 °F 88% 29.80 in 10.0 mi East 6.9 mph - N/A   Mostly Cloudy
11:16 PM 55.4 °F - 51.8 °F 88% 29.79 in 10.0 mi ENE 5.8 mph - 0.01 in   Overcast
11:36 PM 55.4 °F - 51.8 °F 88% 29.79 in 10.0 mi ENE 5.8 mph - 0.02 in   Overcast
11:56 PM 55.4 °F - 51.8 °F 88% 29.78 in 10.0 mi ENE 4.6 mph - 0.02 in   Overcast